| time (UTC) | temp C | wind direction | speed KPH | gust KPH | rain 1hr cm | rain 24hr cm | rain mn cm | humidity % | barometer mb |
| 20260510140306 | 15 | 20 | 16.1 | 32.2 | 0.00 | 0.00 | 0.00 | 71 | 1014.0 |
| 20260510135806 | 16 | 8 | 14.5 | 32.2 | 0.00 | 0.00 | 0.00 | 72 | 1014.0 |
| 20260510135305 | 16 | 341 | 12.9 | 24.1 | 0.00 | 0.00 | 0.00 | 71 | 1014.0 |
| 20260510134829 | 16 | 354 | 16.1 | 29.0 | 0.00 | 0.00 | 0.00 | 71 | 1014.2 |
| 20260510133803 | 16 | 335 | 16.1 | 27.4 | 0.00 | 0.00 | 0.00 | 70 | 1014.3 |
| 20260510133259 | 16 | 313 | 19.3 | 30.6 | 0.00 | 0.00 | 0.00 | 70 | 1014.3 |
| 20260510132800 | 16 | 29 | 17.7 | 30.6 | 0.00 | 0.00 | 0.00 | 68 | 1014.4 |
| 20260510132258 | 16 | 343 | 17.7 | 32.2 | 0.00 | 0.00 | 0.00 | 69 | 1014.5 |
| 20260510131757 | 16 | 339 | 17.7 | 32.2 | 0.00 | 0.00 | 0.00 | 67 | 1014.5 |
| 20260510131257 | 16 | 0 | 16.1 | 29.0 | 0.00 | 0.00 | 0.00 | 67 | 1014.5 |
| 20260510130756 | 16 | 343 | 16.1 | 27.4 | 0.00 | 0.00 | 0.00 | 65 | 1014.6 |
| 20260510130255 | 16 | 351 | 17.7 | 30.6 | 0.00 | 0.00 | 0.00 | 65 | 1014.6 |
| 20260510125755 | 16 | 346 | 17.7 | 30.6 | 0.00 | 0.00 | 0.00 | 64 | 1014.8 |
| 20260510125359 | 16 | 23 | 16.1 | 30.6 | 0.00 | 0.00 | 0.00 | 66 | 1014.8 |
| 20260510123756 | 16 | 352 | 17.7 | 32.2 | 0.00 | 0.00 | 0.00 | 65 | 1015.1 |
| 20260510123254 | 16 | 349 | 16.1 | 29.0 | 0.00 | 0.00 | 0.00 | 68 | 1014.9 |
| 20260510122757 | 16 | 43 | 16.1 | 35.4 | 0.00 | 0.00 | 0.00 | 65 | 1015.0 |
| 20260510122257 | 16 | 74 | 17.7 | 35.4 | 0.00 | 0.00 | 0.00 | 66 | 1015.0 |
| 20260510121901 | 16 | 339 | 16.1 | 27.4 | 0.00 | 0.00 | 0.00 | 65 | 1015.0 |
| 20260510120256 | 16 | 270 | 17.7 | 27.4 | 0.00 | 0.00 | 0.00 | 66 | 1015.3 |
| 20260510115754 | 16 | 21 | 19.3 | 30.6 | 0.00 | 0.00 | 0.00 | 65 | 1015.3 |
| 20260510115256 | 16 | 19 | 17.7 | 30.6 | 0.00 | 0.00 | 0.00 | 64 | 1015.3 |
| 20260510114756 | 16 | 21 | 17.7 | 30.6 | 0.00 | 0.00 | 0.00 | 63 | 1015.4 |
| 20260510114254 | 16 | 354 | 19.3 | 32.2 | 0.00 | 0.00 | 0.00 | 65 | 1015.3 |
| 20260510113754 | 16 | 339 | 17.7 | 32.2 | 0.00 | 0.00 | 0.00 | 60 | 1015.3 |
| 20260510113255 | 16 | 6 | 16.1 | 29.0 | 0.00 | 0.00 | 0.00 | 67 | 1015.4 |
| 20260510112754 | 16 | 342 | 16.1 | 27.4 | 0.00 | 0.00 | 0.00 | 69 | 1015.4 |
| 20260510112305 | 16 | 35 | 17.7 | 27.4 | 0.00 | 0.00 | 0.00 | 67 | 1015.6 |
| 20260510111937 | 16 | 342 | 16.1 | 27.4 | 0.00 | 0.00 | 0.00 | 65 | 1015.6 |
| 20260510105755 | 16 | 341 | 19.3 | 35.4 | 0.00 | 0.00 | 0.00 | 63 | 1015.7 |
| 20260510105255 | 16 | 356 | 17.7 | 35.4 | 0.00 | 0.00 | 0.00 | 63 | 1015.9 |
| 20260510104756 | 16 | 18 | 16.1 | 30.6 | 0.00 | 0.00 | 0.00 | 64 | 1015.8 |
| 20260510104256 | 16 | 352 | 14.5 | 27.4 | 0.00 | 0.00 | 0.00 | 67 | 1015.7 |
| 20260510103753 | 16 | 52 | 19.3 | 41.8 | 0.00 | 0.00 | 0.00 | 68 | 1015.8 |
| 20260510103330 | 15 | 263 | 20.9 | 41.8 | 0.00 | 0.00 | 0.00 | 66 | 1015.9 |
| 20260510102254 | 16 | 358 | 16.1 | 27.4 | 0.00 | 0.00 | 0.00 | 65 | 1015.9 |
| 20260510101752 | 15 | 358 | 16.1 | 27.4 | 0.00 | 0.00 | 0.00 | 65 | 1015.8 |
| 20260510101332 | 15 | 309 | 16.1 | 29.0 | 0.00 | 0.00 | 0.00 | 65 | 1015.9 |
| 20260510100351 | 15 | 330 | 16.1 | 32.2 | 0.00 | 0.00 | 0.00 | 65 | 1015.9 |
| 20260510095253 | 15 | 41 | 16.1 | 32.2 | 0.00 | 0.00 | 0.00 | 68 | 1016.0 |
| 20260510094754 | 15 | 6 | 16.1 | 29.0 | 0.00 | 0.00 | 0.00 | 66 | 1016.0 |
| 20260510094252 | 15 | 2 | 14.5 | 24.1 | 0.00 | 0.00 | 0.00 | 66 | 1016.1 |
| 20260510093753 | 15 | 10 | 12.9 | 22.5 | 0.00 | 0.00 | 0.00 | 65 | 1016.1 |
| 20260510093306 | 15 | 6 | 14.5 | 24.1 | 0.00 | 0.00 | 0.00 | 64 | 1016.1 |
| 20260510092753 | 15 | 6 | 12.9 | 24.1 | 0.00 | 0.00 | 0.00 | 65 | 1016.1 |
| 20260510092252 | 15 | 343 | 14.5 | 30.6 | 0.00 | 0.00 | 0.00 | 65 | 1016.2 |
| 20260510091829 | 15 | 0 | 19.3 | 32.2 | 0.00 | 0.00 | 0.00 | 65 | 1016.2 |
| 20260510090754 | 15 | 321 | 19.3 | 35.4 | 0.00 | 0.00 | 0.00 | 67 | 1016.3 |
| 20260510090259 | 15 | 8 | 17.7 | 35.4 | 0.00 | 0.00 | 0.00 | 68 | 1016.3 |
| 20260510085752 | 15 | 40 | 17.7 | 35.4 | 0.00 | 0.00 | 0.00 | 70 | 1016.3 |
| 20260510085254 | 15 | 359 | 16.1 | 35.4 | 0.00 | 0.00 | 0.00 | 70 | 1016.4 |
| 20260510084753 | 15 | 59 | 14.5 | 27.4 | 0.00 | 0.00 | 0.00 | 73 | 1016.3 |
| 20260510084253 | 15 | 273 | 14.5 | 27.4 | 0.00 | 0.00 | 0.00 | 73 | 1016.4 |
| 20260510083751 | 15 | 356 | 16.1 | 32.2 | 0.00 | 0.00 | 0.00 | 74 | 1016.4 |
| 20260510083251 | 15 | 358 | 14.5 | 32.2 | 0.00 | 0.00 | 0.00 | 74 | 1016.5 |
| 20260510082752 | 15 | 14 | 12.9 | 29.0 | 0.00 | 0.00 | 0.00 | 77 | 1016.5 |
| 20260510082249 | 14 | 10 | 14.5 | 29.0 | 0.00 | 0.00 | 0.00 | 74 | 1016.6 |
| 20260510081750 | 14 | 3 | 16.1 | 29.0 | 0.00 | 0.00 | 0.00 | 76 | 1016.7 |
| 20260510081251 | 14 | 33 | 14.5 | 27.4 | 0.00 | 0.00 | 0.00 | 75 | 1016.6 |
| 20260510080819 | 14 | 359 | 11.3 | 19.3 | 0.00 | 0.00 | 0.00 | 76 | 1016.6 |
| 20260510075747 | 14 | 8 | 12.9 | 22.5 | 0.00 | 0.00 | 0.00 | 76 | 1016.7 |
| 20260510075244 | 14 | 31 | 12.9 | 25.7 | 0.00 | 0.00 | 0.00 | 77 | 1016.6 |
| 20260510074739 | 14 | 346 | 11.3 | 25.7 | 0.00 | 0.00 | 0.00 | 76 | 1016.6 |
| 20260510074321 | 13 | 345 | 12.9 | 25.7 | 0.00 | 0.00 | 0.00 | 78 | 1016.6 |
| 20260510073241 | 13 | 19 | 14.5 | 30.6 | 0.00 | 0.00 | 0.00 | 80 | 1016.7 |
| 20260510072742 | 13 | 0 | 14.5 | 30.6 | 0.00 | 0.00 | 0.00 | 80 | 1016.8 |
| 20260510072240 | 13 | 4 | 14.5 | 22.5 | 0.00 | 0.00 | 0.00 | 81 | 1016.8 |
| 20260510071739 | 13 | 330 | 14.5 | 25.7 | 0.00 | 0.00 | 0.00 | 82 | 1016.9 |
| 20260510071237 | 13 | 339 | 14.5 | 25.7 | 0.00 | 0.00 | 0.00 | 82 | 1016.8 |
| 20260510070811 | 12 | 4 | 11.3 | 24.1 | 0.00 | 0.00 | 0.00 | 83 | 1016.8 |
| 20260510065736 | 12 | 352 | 11.3 | 20.9 | 0.00 | 0.00 | 0.00 | 85 | 1016.7 |
| 20260510065234 | 12 | 330 | 11.3 | 19.3 | 0.00 | 0.00 | 0.00 | 86 | 1016.7 |
| 20260510064734 | 12 | 10 | 11.3 | 24.1 | 0.00 | 0.00 | 0.00 | 86 | 1016.7 |
| 20260510064311 | 11 | 330 | 11.3 | 24.1 | 0.00 | 0.00 | 0.00 | 86 | 1016.7 |
| 20260510063404 | 11 | 5 | 11.3 | 20.9 | 0.00 | 0.00 | 0.00 | 87 | 1016.8 |
| 20260510061731 | 11 | 330 | 9.7 | 20.9 | 0.00 | 0.00 | 0.00 | 89 | 1016.7 |
| 20260510061229 | 11 | 330 | 9.7 | 19.3 | 0.00 | 0.00 | 0.00 | 90 | 1016.8 |
| 20260510060732 | 10 | 312 | 8.0 | 19.3 | 0.00 | 0.00 | 0.00 | 90 | 1016.8 |
| 20260510060229 | 10 | 292 | 8.0 | 16.1 | 0.00 | 0.00 | 0.00 | 91 | 1016.8 |
| 20260510055804 | 10 | 2 | 8.0 | 16.1 | 0.00 | 0.00 | 0.00 | 91 | 1016.8 |
| 20260510055430 | 10 | 21 | 9.7 | 19.3 | 0.00 | 0.00 | 0.00 | 91 | 1016.7 |
| 20260510053230 | 10 | 330 | 8.0 | 14.5 | 0.00 | 0.00 | 0.00 | 92 | 1016.7 |
| 20260510052812 | 10 | 296 | 8.0 | 14.5 | 0.00 | 0.00 | 0.00 | 92 | 1016.7 |
| 20260510051730 | 9 | 335 | 8.0 | 14.5 | 0.00 | 0.00 | 0.00 | 93 | 1016.7 |
| 20260510051230 | 9 | 352 | 6.4 | 14.5 | 0.00 | 0.00 | 0.00 | 93 | 1016.7 |
| 20260510050730 | 9 | 330 | 6.4 | 14.5 | 0.00 | 0.00 | 0.00 | 93 | 1016.7 |
| 20260510050228 | 9 | 339 | 6.4 | 12.9 | 0.00 | 0.00 | 0.00 | 93 | 1016.7 |
| 20260510045727 | 9 | 321 | 8.0 | 12.9 | 0.00 | 0.00 | 0.00 | 93 | 1016.7 |
| 20260510045227 | 9 | 330 | 9.7 | 14.5 | 0.00 | 0.00 | 0.00 | 93 | 1016.7 |
| 20260510044813 | 9 | 339 | 9.7 | 14.5 | 0.00 | 0.00 | 0.00 | 93 | 1016.7 |
| 20260510043730 | 9 | 335 | 8.0 | 14.5 | 0.00 | 0.00 | 0.00 | 93 | 1016.7 |
| 20260510043227 | 9 | 314 | 8.0 | 14.5 | 0.00 | 0.00 | 0.00 | 93 | 1016.8 |
| 20260510042833 | 9 | 301 | 8.0 | 14.5 | 0.00 | 0.00 | 0.00 | 93 | 1016.7 |
| 20260510041728 | 9 | 330 | 8.0 | 16.1 | 0.00 | 0.00 | 0.00 | 93 | 1016.7 |
| 20260510041230 | 9 | 312 | 8.0 | 16.1 | 0.00 | 0.00 | 0.00 | 92 | 1016.7 |
| 20260510040729 | 9 | 325 | 9.7 | 16.1 | 0.00 | 0.00 | 0.00 | 92 | 1016.6 |
| 20260510040227 | 9 | 314 | 8.0 | 16.1 | 0.00 | 0.00 | 0.00 | 92 | 1016.6 |
| 20260510035727 | 9 | 1 | 8.0 | 16.1 | 0.00 | 0.00 | 0.00 | 92 | 1016.6 |
| 20260510035227 | 9 | 335 | 8.0 | 14.5 | 0.00 | 0.00 | 0.00 | 92 | 1016.6 |
| 20260510034730 | 9 | 330 | 8.0 | 14.5 | 0.00 | 0.00 | 0.00 | 92 | 1016.6 |
| 20260510034228 | 9 | 330 | 6.4 | 12.9 | 0.00 | 0.00 | 0.00 | 92 | 1016.6 |
| 20260510033728 | 9 | 330 | 6.4 | 14.5 | 0.00 | 0.00 | 0.00 | 91 | 1016.6 |
| 20260510033228 | 9 | 4 | 8.0 | 14.5 | 0.00 | 0.00 | 0.00 | 91 | 1016.5 |
| 20260510032727 | 9 | 310 | 9.7 | 16.1 | 0.00 | 0.00 | 0.00 | 91 | 1016.5 |
| 20260510032228 | 9 | 321 | 9.7 | 16.1 | 0.00 | 0.00 | 0.00 | 91 | 1016.6 |
| 20260510031729 | 9 | 311 | 9.7 | 14.5 | 0.00 | 0.00 | 0.00 | 91 | 1016.6 |
| 20260510031228 | 10 | 354 | 8.0 | 19.3 | 0.00 | 0.00 | 0.00 | 91 | 1016.6 |
| 20260510030729 | 10 | 335 | 8.0 | 19.3 | 0.00 | 0.00 | 0.00 | 91 | 1016.6 |
| 20260510030332 | 10 | 349 | 8.0 | 16.1 | 0.00 | 0.00 | 0.00 | 91 | 1016.6 |
| 20260510025228 | 10 | 352 | 9.7 | 17.7 | 0.00 | 0.00 | 0.00 | 91 | 1016.7 |
| 20260510024728 | 10 | 354 | 11.3 | 17.7 | 0.00 | 0.00 | 0.00 | 91 | 1016.7 |
| 20260510024230 | 10 | 316 | 9.7 | 17.7 | 0.00 | 0.00 | 0.00 | 91 | 1016.8 |
| 20260510023727 | 10 | 325 | 9.7 | 17.7 | 0.00 | 0.00 | 0.00 | 91 | 1016.7 |
| 20260510023227 | 10 | 318 | 9.7 | 17.7 | 0.00 | 0.00 | 0.00 | 91 | 1016.8 |
| 20260510022734 | 10 | 316 | 9.7 | 17.7 | 0.00 | 0.00 | 0.00 | 91 | 1016.8 |
| 20260510022313 | 10 | 330 | 9.7 | 16.1 | 0.00 | 0.00 | 0.00 | 90 | 1016.9 |
| 20260510021300 | 10 | 330 | 8.0 | 16.1 | 0.00 | 0.00 | 0.00 | 90 | 1016.9 |
| 20260510020304 | 10 | 14 | 8.0 | 14.5 | 0.00 | 0.00 | 0.00 | 90 | 1017.0 |
| 20260510015215 | 10 | 325 | 8.0 | 16.1 | 0.00 | 0.00 | 0.00 | 90 | 1017.0 |
| 20260510014720 | 10 | 330 | 9.7 | 16.1 | 0.00 | 0.00 | 0.00 | 91 | 1017.0 |
| 20260510014215 | 10 | 314 | 9.7 | 16.1 | 0.00 | 0.00 | 0.00 | 91 | 1017.1 |
| 20260510013718 | 10 | 325 | 8.0 | 16.1 | 0.00 | 0.00 | 0.00 | 91 | 1017.1 |
| 20260510013214 | 10 | 330 | 8.0 | 12.9 | 0.00 | 0.00 | 0.00 | 91 | 1017.0 |
| 20260510012716 | 10 | 311 | 8.0 | 14.5 | 0.00 | 0.00 | 0.00 | 91 | 1016.9 |
| 20260510012216 | 10 | 356 | 8.0 | 14.5 | 0.00 | 0.00 | 0.00 | 91 | 1016.9 |
| 20260510011717 | 10 | 310 | 8.0 | 12.9 | 0.00 | 0.00 | 0.00 | 90 | 1016.9 |
| 20260510011216 | 10 | 316 | 6.4 | 14.5 | 0.00 | 0.00 | 0.00 | 91 | 1016.9 |
| 20260510010711 | 10 | 330 | 6.4 | 14.5 | 0.00 | 0.00 | 0.00 | 90 | 1017.0 |
| 20260510010213 | 10 | 330 | 6.4 | 14.5 | 0.00 | 0.00 | 0.00 | 90 | 1017.0 |
| 20260510005756 | 10 | 356 | 8.0 | 12.9 | 0.00 | 0.00 | 0.00 | 90 | 1017.1 |
| 20260510004746 | 10 | 314 | 6.4 | 12.9 | 0.00 | 0.00 | 0.00 | 90 | 1017.2 |
| 20260510003712 | 10 | 342 | 6.4 | 12.9 | 0.00 | 0.00 | 0.00 | 90 | 1017.4 |
| 20260510003212 | 10 | 306 | 6.4 | 14.5 | 0.00 | 0.00 | 0.00 | 90 | 1017.3 |
| 20260510002716 | 11 | 11 | 6.4 | 14.5 | 0.00 | 0.00 | 0.00 | 90 | 1017.3 |
| 20260510002212 | 11 | 340 | 6.4 | 12.9 | 0.00 | 0.00 | 0.00 | 90 | 1017.4 |
| 20260510001713 | 11 | 325 | 4.8 | 8.0 | 0.00 | 0.00 | 0.00 | 90 | 1017.5 |
| 20260510001206 | 11 | 325 | 6.4 | 12.9 | 0.00 | 0.00 | 0.00 | 89 | 1017.6 |
| 20260510000706 | 11 | 335 | 6.4 | 14.5 | 0.00 | 0.00 | 0.00 | 89 | 1017.6 |
| 20260510000206 | 11 | 319 | 8.0 | 14.5 | 0.00 | 0.00 | 0.00 | 89 | 1017.5 |
| 20260509235746 | 11 | 287 | 8.0 | 14.5 | 0.00 | 0.00 | 0.00 | 89 | 1017.5 |
| 20260509234738 | 11 | 315 | 8.0 | 12.9 | 0.00 | 0.00 | 0.00 | 89 | 1017.6 |
| 20260509233706 | 11 | 320 | 6.4 | 12.9 | 0.00 | 0.00 | 0.00 | 88 | 1017.5 |
| 20260509233206 | 11 | 339 | 6.4 | 11.3 | 0.00 | 0.00 | 0.00 | 88 | 1017.5 |
| 20260509232705 | 11 | 300 | 6.4 | 11.3 | 0.00 | 0.00 | 0.00 | 88 | 1017.4 |
| 20260509232205 | 11 | 6 | 6.4 | 12.9 | 0.00 | 0.00 | 0.00 | 88 | 1017.5 |
| 20260509231704 | 11 | 335 | 6.4 | 12.9 | 0.00 | 0.00 | 0.00 | 88 | 1017.5 |
| 20260509231206 | 11 | 350 | 6.4 | 14.5 | 0.00 | 0.00 | 0.00 | 87 | 1017.6 |
| 20260509230707 | 11 | 312 | 8.0 | 16.1 | 0.00 | 0.00 | 0.00 | 87 | 1017.6 |
| 20260509230206 | 11 | 325 | 8.0 | 16.1 | 0.00 | 0.00 | 0.00 | 87 | 1017.5 |
| 20260509225706 | 11 | 325 | 8.0 | 16.1 | 0.00 | 0.00 | 0.00 | 86 | 1017.6 |
| 20260509225230 | 11 | 11 | 6.4 | 14.5 | 0.00 | 0.00 | 0.00 | 86 | 1017.6 |
| 20260509224205 | 11 | 0 | 6.4 | 12.9 | 0.00 | 0.00 | 0.00 | 85 | 1017.7 |
| 20260509223729 | 11 | 325 | 8.0 | 14.5 | 0.00 | 0.00 | 0.00 | 84 | 1017.7 |
| 20260509222702 | 12 | 356 | 6.4 | 14.5 | 0.00 | 0.00 | 0.00 | 83 | 1017.7 |
| 20260509222204 | 12 | 330 | 6.4 | 14.5 | 0.00 | 0.00 | 0.00 | 83 | 1017.6 |
| 20260509221704 | 12 | 352 | 8.0 | 14.5 | 0.00 | 0.00 | 0.00 | 83 | 1017.6 |
| 20260509221205 | 12 | 314 | 8.0 | 19.3 | 0.00 | 0.00 | 0.00 | 82 | 1017.6 |
| 20260509220705 | 12 | 325 | 8.0 | 19.3 | 0.00 | 0.00 | 0.00 | 82 | 1017.7 |
| 20260509220204 | 12 | 311 | 6.4 | 17.7 | 0.00 | 0.00 | 0.00 | 81 | 1017.6 |
| 20260509215702 | 12 | 325 | 8.0 | 16.1 | 0.00 | 0.00 | 0.00 | 81 | 1017.7 |
| 20260509215202 | 12 | 8 | 8.0 | 14.5 | 0.00 | 0.00 | 0.00 | 81 | 1017.6 |
| 20260509214702 | 12 | 349 | 8.0 | 14.5 | 0.00 | 0.00 | 0.00 | 81 | 1017.6 |
| 20260509214159 | 12 | 356 | 8.0 | 20.9 | 0.00 | 0.00 | 0.00 | 80 | 1017.7 |
| 20260509213658 | 12 | 26 | 8.0 | 20.9 | 0.00 | 0.00 | 0.00 | 80 | 1017.6 |
| 20260509213155 | 12 | 330 | 6.4 | 14.5 | 0.00 | 0.00 | 0.00 | 80 | 1017.6 |
| 20260509212651 | 12 | 349 | 6.4 | 14.5 | 0.00 | 0.00 | 0.00 | 79 | 1017.6 |
| 20260509212148 | 12 | 316 | 6.4 | 16.1 | 0.00 | 0.00 | 0.00 | 79 | 1017.7 |
| 20260509211649 | 12 | 325 | 8.0 | 17.7 | 0.00 | 0.00 | 0.00 | 78 | 1017.8 |
| 20260509211149 | 12 | 339 | 9.7 | 17.7 | 0.00 | 0.00 | 0.00 | 78 | 1017.7 |
| 20260509210650 | 12 | 343 | 8.0 | 16.1 | 0.00 | 0.00 | 0.00 | 77 | 1017.6 |
| 20260509210217 | 12 | 358 | 8.0 | 16.1 | 0.00 | 0.00 | 0.00 | 77 | 1017.7 |
| 20260509205150 | 13 | 346 | 8.0 | 14.5 | 0.00 | 0.00 | 0.00 | 76 | 1017.7 |
| 20260509204650 | 13 | 345 | 8.0 | 16.1 | 0.00 | 0.00 | 0.00 | 75 | 1017.6 |
| 20260509204147 | 13 | 348 | 8.0 | 17.7 | 0.00 | 0.00 | 0.00 | 75 | 1017.8 |
| 20260509203647 | 13 | 0 | 9.7 | 19.3 | 0.00 | 0.00 | 0.00 | 74 | 1017.6 |
| 20260509203149 | 13 | 309 | 9.7 | 19.3 | 0.00 | 0.00 | 0.00 | 74 | 1017.6 |
| 20260509202730 | 13 | 12 | 9.7 | 19.3 | 0.00 | 0.00 | 0.00 | 74 | 1017.5 |
| 20260509201718 | 13 | 8 | 8.0 | 16.1 | 0.00 | 0.00 | 0.00 | 73 | 1017.6 |
| 20260509200648 | 13 | 1 | 6.4 | 12.9 | 0.00 | 0.00 | 0.00 | 72 | 1017.6 |
| 20260509200147 | 13 | 335 | 6.4 | 14.5 | 0.00 | 0.00 | 0.00 | 72 | 1017.7 |
| 20260509195646 | 13 | 6 | 6.4 | 14.5 | 0.00 | 0.00 | 0.00 | 72 | 1017.7 |
| 20260509195146 | 13 | 345 | 8.0 | 14.5 | 0.00 | 0.00 | 0.00 | 72 | 1017.7 |
| 20260509194646 | 14 | 357 | 8.0 | 14.5 | 0.00 | 0.00 | 0.00 | 72 | 1017.6 |
| 20260509194145 | 14 | 343 | 8.0 | 17.7 | 0.00 | 0.00 | 0.00 | 71 | 1017.5 |
| 20260509193646 | 14 | 356 | 8.0 | 17.7 | 0.00 | 0.00 | 0.00 | 71 | 1017.5 |
| 20260509193146 | 14 | 354 | 6.4 | 12.9 | 0.00 | 0.00 | 0.00 | 71 | 1017.6 |
| 20260509192645 | 14 | 14 | 4.8 | 11.3 | 0.00 | 0.00 | 0.00 | 70 | 1017.5 |
| 20260509192145 | 15 | 11 | 6.4 | 14.5 | 0.00 | 0.00 | 0.00 | 70 | 1017.5 |
| 20260509191647 | 15 | 352 | 8.0 | 14.5 | 0.00 | 0.00 | 0.00 | 69 | 1017.5 |
| 20260509191145 | 15 | 18 | 8.0 | 14.5 | 0.00 | 0.00 | 0.00 | 69 | 1017.4 |
| 20260509190646 | 15 | 355 | 8.0 | 16.1 | 0.00 | 0.00 | 0.00 | 69 | 1017.5 |
| 20260509190145 | 15 | 345 | 9.7 | 17.7 | 0.00 | 0.00 | 0.00 | 68 | 1017.5 |
| 20260509185647 | 15 | 10 | 9.7 | 17.7 | 0.00 | 0.00 | 0.00 | 68 | 1017.4 |
| 20260509185147 | 15 | 15 | 8.0 | 16.1 | 0.00 | 0.00 | 0.00 | 68 | 1017.3 |
| 20260509184651 | 15 | 12 | 9.7 | 17.7 | 0.00 | 0.00 | 0.00 | 67 | 1017.3 |
| 20260509184151 | 15 | 23 | 8.0 | 17.7 | 0.00 | 0.00 | 0.00 | 66 | 1017.4 |
| 20260509183712 | 16 | 2 | 8.0 | 14.5 | 0.00 | 0.00 | 0.00 | 66 | 1017.2 |
| 20260509182647 | 16 | 343 | 6.4 | 16.1 | 0.00 | 0.00 | 0.00 | 65 | 1017.2 |
| 20260509182147 | 16 | 339 | 8.0 | 19.3 | 0.00 | 0.00 | 0.00 | 65 | 1017.2 |
| 20260509181647 | 16 | 330 | 9.7 | 20.9 | 0.00 | 0.00 | 0.00 | 64 | 1017.2 |
| 20260509181146 | 16 | 345 | 11.3 | 20.9 | 0.00 | 0.00 | 0.00 | 63 | 1017.1 |
| 20260509180646 | 16 | 356 | 11.3 | 22.5 | 0.00 | 0.00 | 0.00 | 63 | 1017.1 |
| 20260509180214 | 16 | 352 | 11.3 | 22.5 | 0.00 | 0.00 | 0.00 | 61 | 1017.2 |
| 20260509175145 | 16 | 350 | 12.9 | 20.9 | 0.00 | 0.00 | 0.00 | 61 | 1017.1 |
| 20260509174643 | 16 | 339 | 8.0 | 20.9 | 0.00 | 0.00 | 0.00 | 61 | 1017.1 |
| 20260509174212 | 17 | 31 | 8.0 | 16.1 | 0.00 | 0.00 | 0.00 | 62 | 1017.1 |
| 20260509173142 | 17 | 2 | 9.7 | 19.3 | 0.00 | 0.00 | 0.00 | 61 | 1017.3 |
| 20260509172644 | 17 | 325 | 9.7 | 22.5 | 0.00 | 0.00 | 0.00 | 60 | 1017.3 |
| 20260509172142 | 17 | 16 | 11.3 | 22.5 | 0.00 | 0.00 | 0.00 | 60 | 1017.3 |
| 20260509171641 | 17 | 11 | 12.9 | 24.1 | 0.00 | 0.00 | 0.00 | 59 | 1017.3 |
| 20260509171141 | 17 | 356 | 11.3 | 24.1 | 0.00 | 0.00 | 0.00 | 59 | 1017.2 |
| 20260509170642 | 17 | 320 | 8.0 | 20.9 | 0.00 | 0.00 | 0.00 | 60 | 1017.3 |
| 20260509170142 | 17 | 325 | 11.3 | 22.5 | 0.00 | 0.00 | 0.00 | 58 | 1017.2 |
| 20260509165640 | 17 | 7 | 11.3 | 22.5 | 0.00 | 0.00 | 0.00 | 56 | 1017.3 |
| 20260509165139 | 17 | 349 | 9.7 | 22.5 | 0.00 | 0.00 | 0.00 | 58 | 1017.3 |
| 20260509164640 | 17 | 349 | 9.7 | 19.3 | 0.00 | 0.00 | 0.00 | 57 | 1017.3 |
| 20260509164138 | 17 | 27 | 11.3 | 20.9 | 0.00 | 0.00 | 0.00 | 57 | 1017.2 |
| 20260509163637 | 17 | 320 | 9.7 | 20.9 | 0.00 | 0.00 | 0.00 | 57 | 1017.3 |
| 20260509163211 | 18 | 356 | 11.3 | 20.9 | 0.00 | 0.00 | 0.00 | 59 | 1017.3 |
| 20260509162137 | 17 | 21 | 12.9 | 20.9 | 0.00 | 0.00 | 0.00 | 57 | 1017.2 |
| 20260509161637 | 17 | 354 | 11.3 | 20.9 | 0.00 | 0.00 | 0.00 | 58 | 1017.2 |
| 20260509161140 | 17 | 318 | 11.3 | 17.7 | 0.00 | 0.00 | 0.00 | 56 | 1017.3 |
| 20260509160637 | 17 | 340 | 9.7 | 17.7 | 0.00 | 0.00 | 0.00 | 57 | 1017.2 |
| 20260509160138 | 17 | 358 | 8.0 | 16.1 | 0.00 | 0.00 | 0.00 | 58 | 1017.3 |
| 20260509155748 | 17 | 76 | 6.4 | 19.3 | 0.00 | 0.00 | 0.00 | 58 | 1017.2 |
| 20260509154136 | 18 | 62 | 3.2 | 11.3 | 0.00 | 0.00 | 0.00 | 55 | 1017.2 |
| 20260509153702 | 18 | 73 | 4.8 | 11.3 | 0.00 | 0.00 | 0.00 | 56 | 1017.2 |
| 20260509152718 | 18 | 33 | 8.0 | 17.7 | 0.00 | 0.00 | 0.00 | 57 | 1017.2 |
| 20260509151638 | 18 | 0 | 6.4 | 16.1 | 0.00 | 0.00 | 0.00 | 56 | 1017.3 |
| 20260509151140 | 18 | 8 | 6.4 | 16.1 | 0.00 | 0.00 | 0.00 | 57 | 1017.3 |
| 20260509150709 | 18 | 45 | 6.4 | 14.5 | 0.00 | 0.00 | 0.00 | 57 | 1017.5 |
| 20260509145640 | 18 | 5 | 4.8 | 16.1 | 0.00 | 0.00 | 0.00 | 55 | 1017.5 |
| 20260509145146 | 19 | 25 | 3.2 | 11.3 | 0.00 | 0.00 | 0.00 | 57 | 1017.4 |
| 20260509144640 | 18 | 48 | 4.8 | 11.3 | 0.00 | 0.00 | 0.00 | 54 | 1017.5 |
| 20260509144134 | 18 | 50 | 6.4 | 11.3 | 0.00 | 0.00 | 0.00 | 53 | 1017.5 |
| 20260509143711 | 18 | 57 | 8.0 | 20.9 | 0.00 | 0.00 | 0.00 | 58 | 1017.5 |
| 20260509142637 | 18 | 39 | 8.0 | 17.7 | 0.00 | 0.00 | 0.00 | 53 | 1017.5 |
| 20260509142146 | 18 | 48 | 8.0 | 17.7 | 0.00 | 0.00 | 0.00 | 59 | 1017.6 |
| 20260509141634 | 18 | 36 | 6.4 | 16.1 | 0.00 | 0.00 | 0.00 | 57 | 1017.6 |
| 20260509141134 | 18 | 2 | 6.4 | 16.1 | 0.00 | 0.00 | 0.00 | 60 | 1017.6 |
| 20260509140632 | 17 | 351 | 6.4 | 14.5 | 0.00 | 0.00 | 0.00 | 58 | 1017.8 |